Location: Newark
(34.1333°N, 7.9667°W)
Time: 09:48:09
(UTC+00:00)

Tiros 1 despin weight - All Passes

Search period start: 29 November 2021 00:00
Search period end: 09 December 2021 00:00
Orbit: 593 x 641 km, 48.2° (Epoch: 28 November)

Date Brightness Start Highest point End Pass type
(mag) Time Alt. Az. Time Alt. Az. Time Alt. Az.
29 Nov - 14:00:02 10° SSW 14:04:12 42° SE 14:08:22 10° ENE daylight
29 Nov - 15:41:47 10° W 15:45:46 33° NNW 15:49:47 10° NE daylight
29 Nov - 17:25:59 10° NW 17:28:20 14° N 17:30:41 10° NNE daylight
29 Nov - 19:08:40 10° NNW 19:11:19 15° NNE 19:13:58 10° NE visible
29 Nov - 20:49:29 10° NW 20:53:43 42° NNE 20:58:00 10° ESE visible
29 Nov - 22:31:12 10° WNW 22:35:08 31° SW 22:39:07 10° SSE night (unlit)
30 Nov - 12:37:30 10° SSE 12:39:17 12° SE 12:41:03 10° ESE daylight
30 Nov - 14:15:51 10° SW 14:20:16 90° N 14:24:42 10° NE daylight
30 Nov - 15:58:49 10° WNW 16:02:14 21° NNW 16:05:39 10° NNE daylight
30 Nov - 17:43:03 10° NNW 17:45:04 13° N 17:47:05 10° NNE visible
30 Nov - 19:24:35 10° NNW 19:27:56 20° NNE 19:31:17 10° ENE visible
30 Nov - 21:05:30 10° NW 21:09:57 81° NE 21:14:27 10° SE night (unlit)
30 Nov - 22:48:35 10° W 22:51:01 14° SW 22:53:27 10° SSW night (unlit)
01 Dec - 12:51:25 10° S 12:55:09 27° SE 12:58:52 10° ENE daylight
01 Dec - 14:32:13 10° WSW 14:36:28 46° NNW 14:40:44 10° NE daylight
01 Dec - 16:16:07 10° NW 16:18:50 16° NNW 16:21:33 10° NNE daylight
01 Dec - 17:59:32 10° NNW 18:01:48 14° N 18:04:04 10° NE visible
01 Dec - 19:40:28 10° NW 19:44:25 31° NNE 19:48:23 10° E visible
01 Dec - 21:21:45 10° WNW 21:26:03 48° SW 21:30:23 10° SSE night (unlit)
02 Dec - 13:06:46 10° SW 13:11:08 58° SE 13:15:27 10° ENE daylight
02 Dec - 14:49:04 10° W 14:52:51 27° NNW 14:56:38 10° NNE daylight
02 Dec - 16:33:23 10° NW 16:35:32 13° N 16:37:41 10° NNE daylight
02 Dec - 18:15:34 10° NNW 18:18:28 17° NNE 18:21:23 10° ENE visible
02 Dec - 19:56:23 10° NW 20:00:44 54° NE 20:05:07 10° ESE visible
02 Dec - 21:38:29 10° W 21:42:00 23° SW 21:45:31 10° S night (unlit)
03 Dec - 11:43:14 10° S 11:46:07 17° SE 11:49:00 10° E daylight
03 Dec - 13:22:49 10° WSW 13:27:14 69° NW 13:31:39 10° NE daylight
03 Dec - 15:06:13 10° WNW 15:09:22 19° NNW 15:12:30 10° NNE daylight
03 Dec - 16:50:14 10° NNW 16:52:16 13° N 16:54:18 10° NNE daylight
03 Dec - 18:31:28 10° NNW 18:35:02 24° NNE 18:38:37 10° ENE visible
03 Dec - 20:12:29 10° NW 20:16:55 77° SW 20:21:22 10° SE visible
03 Dec - 21:57:36 10° SW 21:57:50 10° SW 21:58:04 10° SW night (unlit)
04 Dec - 11:57:56 10° SSW 12:02:01 36° SE 12:06:05 10° ENE daylight
04 Dec - 13:39:23 10° W 13:43:31 37° NNW 13:47:37 10° NE daylight
04 Dec - 15:23:32 10° NW 15:26:00 14° N 15:28:27 10° NNE daylight
04 Dec - 17:06:30 10° NNW 17:08:58 15° N 17:11:27 10° NE daylight
04 Dec - 18:47:20 10° NW 18:51:27 37° NNE 18:55:35 10° E visible
04 Dec - 20:28:53 10° WNW 20:32:56 36° SW 20:37:01 10° SSE visible
05 Dec - 10:36:29 10° SE 10:37:07 10° SE 10:37:46 10° ESE daylight
05 Dec - 12:13:36 10° SW 12:18:03 79° SE 12:22:29 10° NE daylight
05 Dec - 13:56:22 10° WNW 13:59:56 23° NNW 14:03:29 10° NNE daylight
05 Dec - 15:40:41 10° NNW 15:42:43 13° N 15:44:45 10° NNE daylight
05 Dec - 17:22:27 10° NNW 17:25:37 19° NNE 17:28:47 10° ENE daylight
05 Dec - 19:03:19 10° NW 19:07:43 70° NE 19:12:09 10° ESE visible
05 Dec - 20:46:00 10° W 20:48:50 17° SW 20:51:42 10° S visible
06 Dec - 10:49:24 10° S 10:52:58 23° SE 10:56:29 10° E daylight
06 Dec - 12:29:52 10° WSW 12:34:14 53° NNW 12:38:33 10° NE daylight
06 Dec - 14:13:37 10° NW 14:16:30 17° NNW 14:19:22 10° NNE daylight
06 Dec - 15:57:18 10° NNW 15:59:27 13° N 16:01:37 10° NE daylight
06 Dec - 17:38:19 10° NW 17:42:07 28° NNE 17:45:56 10° E daylight
06 Dec - 19:19:30 10° WNW 19:23:50 57° SW 19:28:11 10° SE visible
07 Dec - 11:04:35 10° SSW 11:08:54 49° SE 11:13:12 10° ENE daylight
07 Dec - 12:46:37 10° W 12:50:33 30° NNW 12:54:29 10° NE daylight
07 Dec - 14:30:55 10° NW 14:33:10 14° N 14:35:25 10° NNE daylight
07 Dec - 16:13:24 10° NNW 16:16:08 16° NNE 16:18:52 10° NE daylight
07 Dec - 17:54:13 10° NW 17:58:29 47° NNE 18:02:44 10° ESE visible
07 Dec - 19:36:06 10° WNW 19:39:48 26° SW 19:43:31 10° S visible
08 Dec - 09:41:26 10° SSE 09:43:55 15° SE 09:46:24 10° E daylight
08 Dec - 11:20:31 10° SW 11:25:00 79° NW 11:29:27 10° NE daylight
08 Dec - 13:03:42 10° WNW 13:07:02 20° NNW 13:10:20 10° NNE daylight
08 Dec - 14:47:53 10° NNW 14:49:54 13° N 14:51:55 10° NNE daylight
08 Dec - 16:29:17 10° NNW 16:32:43 22° NNE 16:36:09 10° ENE daylight
08 Dec - 18:10:15 10° NW 18:14:41 89° SSW 18:19:06 10° SE visible
08 Dec - 19:53:57 10° WSW 19:55:39 12° SW 19:57:20 10° SSW visible
